FW6313 Weather Reports


Display with metric or nautical units.
time (UTC)temp
F
wind
direction
speed
MPH
gust
MPH
rain 1hr
in
rain 24hr
in
rain mn
in
humidity
%
barometer
mb
20260504173002 58 209 0.0 6.0 0.00 0.00 0.00 41 1002.0
20260504172501 58 272 0.0 7.0 0.00 0.00 0.00 43 1002.1
20260504172002 58 274 2.0 7.0 0.00 0.00 0.00 40 1002.1
20260504171505 59 105 0.0 8.0 0.00 0.00 0.00 39 1002.1
20260504171001 59 99 2.0 6.0 0.00 0.00 0.00 37 1002.1
20260504170501 59 98 0.0 6.0 0.00 0.00 0.00 38 1002.2
20260504151037 51 98 0.0 0.0 0.00 0.00 0.00 41 1003.2
20260504150536 51 98 0.0 0.0 0.00 0.00 0.00 42 1003.2
20260504141029 46 98 0.0 0.0 0.00 0.00 0.00 42 1003.3
20260504140529 45 98 0.0 0.0 0.00 0.00 0.00 42 1003.3
20260504130522 43 98 0.0 0.0 0.00 0.00 0.00 44 1003.3
20260504110510 41 98 0.0 0.0 0.00 0.00 0.00 39 1002.9
20260504100600 43 96 0.0 0.0 0.00 0.00 0.00 35 1002.1
20260504100115 43 96 0.0 0.0 0.00 0.00 0.00 35 1002.0
20260504081550 45 96 0.0 0.0 0.00 0.00 0.00 33 1002.7
20260504081049 45 96 0.0 0.0 0.00 0.00 0.00 34 1002.8
20260504080549 45 96 0.0 0.0 0.00 0.00 0.00 33 1002.7
20260504050529 51 199 0.0 0.0 0.00 0.00 0.00 25 1004.2
20260504050025 51 199 0.0 0.0 0.00 0.00 0.00 24 1004.2
20260504045524 51 199 0.0 0.0 0.00 0.00 0.00 24 1004.3
20260504045024 52 199 0.0 0.0 0.00 0.00 0.00 24 1004.3
20260504044526 52 199 0.0 0.0 0.00 0.00 0.00 24 1004.3
20260504044024 52 199 0.0 0.0 0.00 0.00 0.00 23 1004.3
20260504043524 52 199 0.0 0.0 0.00 0.00 0.00 23 1004.3
20260504043025 52 199 0.0 0.0 0.00 0.00 0.00 23 1004.5
20260504042523 52 199 0.0 0.0 0.00 0.00 0.00 22 1004.5
20260504042023 52 199 0.0 0.0 0.00 0.00 0.00 22 1004.5
20260504041524 52 199 0.0 0.0 0.00 0.00 0.00 22 1004.5
20260504041023 52 199 0.0 0.0 0.00 0.00 0.00 21 1004.4
20260504040523 52 199 0.0 0.0 0.00 0.00 0.00 21 1004.4
20260504040024 52 199 0.0 0.0 0.00 0.00 0.00 21 1004.4
20260504035524 52 199 0.0 0.0 0.00 0.00 0.00 21 1004.4
20260504035024 52 199 0.0 0.0 0.00 0.00 0.00 21 1004.4
20260504034531 52 199 0.0 0.0 0.00 0.00 0.00 21 1004.4
20260504034022 53 199 0.0 0.0 0.00 0.00 0.00 20 1004.4
20260504033522 53 199 0.0 0.0 0.00 0.00 0.00 20 1004.4
20260504033034 53 199 0.0 0.0 0.00 0.00 0.00 20 1004.4
20260504032521 53 199 0.0 0.0 0.00 0.00 0.00 21 1004.4
20260504032021 53 199 0.0 0.0 0.00 0.00 0.00 21 1004.4
20260504031528 53 199 0.0 0.0 0.00 0.00 0.00 22 1004.4
20260504031020 53 199 0.0 0.0 0.00 0.00 0.00 22 1004.3
20260504030520 54 199 0.0 0.0 0.00 0.00 0.00 22 1004.2
20260504030020 54 199 0.0 0.0 0.00 0.00 0.00 21 1004.2
20260504025519 54 199 0.0 0.0 0.00 0.00 0.00 21 1004.2
20260504025022 54 199 0.0 0.0 0.00 0.00 0.00 22 1004.1
20260504024539 54 199 0.0 0.0 0.00 0.00 0.00 21 1004.1
20260504024018 55 199 0.0 0.0 0.00 0.00 0.00 22 1004.1
20260504023519 55 199 0.0 0.0 0.00 0.00 0.00 21 1004.1
20260504023019 55 199 0.0 0.0 0.00 0.00 0.00 21 1004.1
20260504022519 55 199 0.0 0.0 0.00 0.00 0.00 21 1004.2
20260504022020 55 199 0.0 0.0 0.00 0.00 0.00 22 1004.1
20260504021518 56 199 0.0 0.0 0.00 0.00 0.00 22 1004.0
20260504021019 56 199 0.0 0.0 0.00 0.00 0.00 21 1004.1
20260504020519 56 199 0.0 0.0 0.00 0.00 0.00 21 1004.1
20260504020020 56 199 0.0 0.0 0.00 0.00 0.00 21 1004.0
20260504015518 56 199 0.0 0.0 0.00 0.00 0.00 22 1004.0
20260504015016 57 199 0.0 1.0 0.00 0.00 0.00 21 1004.1
20260504014516 57 199 0.0 1.0 0.00 0.00 0.00 21 1004.0
20260504014018 57 199 0.0 2.0 0.00 0.00 0.00 22 1004.0
20260504013516 57 199 0.0 2.0 0.00 0.00 0.00 22 1004.0
20260504013017 58 199 0.0 1.0 0.00 0.00 0.00 21 1004.0
20260504012516 58 199 0.0 2.0 0.00 0.00 0.00 21 1004.1
20260504012015 58 199 0.0 2.0 0.00 0.00 0.00 21 1004.2
20260504011515 58 199 0.0 3.0 0.00 0.00 0.00 22 1004.2
20260504011015 59 198 0.0 3.0 0.00 0.00 0.00 20 1004.2
20260504010519 59 196 0.0 3.0 0.00 0.00 0.00 19 1004.2
20260504010015 59 202 0.0 7.0 0.00 0.00 0.00 20 1004.2
20260504005514 59 206 0.0 7.0 0.00 0.00 0.00 20 1004.2
20260504005015 59 205 0.0 5.0 0.00 0.00 0.00 19 1004.1
20260504004532 60 201 0.0 3.0 0.00 0.00 0.00 20 1004.2
20260504004014 60 202 0.0 7.0 0.00 0.00 0.00 20 1004.2
20260504003514 60 202 1.0 10.0 0.00 0.00 0.00 19 1004.2
20260504003013 60 257 1.0 10.0 0.00 0.00 0.00 21 1004.2
20260504002512 60 223 0.0 10.0 0.00 0.00 0.00 20 1004.2
20260504002014 60 196 1.0 10.0 0.00 0.00 0.00 20 1004.3
20260504001511 61 194 0.0 12.0 0.00 0.00 0.00 22 1004.4
20260504001015 61 203 1.0 13.0 0.00 0.00 0.00 22 1004.4
20260504000511 61 254 1.0 8.0 0.00 0.00 0.00 22 1004.4
20260504000010 61 196 1.0 7.0 0.00 0.00 0.00 23 1004.4
20260503235509 61 234 0.0 5.0 0.00 0.00 0.00 23 1004.5
20260503235010 60 200 0.0 7.0 0.00 0.00 0.00 20 1004.5
20260503234509 60 188 0.0 5.0 0.00 0.00 0.00 22 1004.5
20260503234009 61 215 0.0 10.0 0.00 0.00 0.00 22 1004.5
20260503233509 61 215 0.0 10.0 0.00 0.00 0.00 20 1004.6
20260503233008 61 221 1.0 9.0 0.00 0.00 0.00 21 1004.5
20260503232511 61 254 1.0 16.0 0.00 0.00 0.00 22 1004.5
20260503232008 61 210 2.0 18.0 0.00 0.00 0.00 21 1004.4
20260503231509 61 202 1.0 18.0 0.00 0.00 0.00 21 1004.5
20260503231012 62 252 3.0 17.0 0.00 0.00 0.00 20 1004.6
20260503230507 62 242 2.0 9.0 0.00 0.00 0.00 21 1004.6
20260503230007 62 244 1.0 7.0 0.00 0.00 0.00 20 1004.7
20260503225506 62 201 2.0 7.0 0.00 0.00 0.00 22 1004.6
20260503225007 62 210 0.0 5.0 0.00 0.00 0.00 24 1004.6
20260503224506 62 229 0.0 5.0 0.00 0.00 0.00 21 1004.8
20260503224008 62 223 0.0 5.0 0.00 0.00 0.00 24 1004.7
20260503223504 62 189 0.0 4.0 0.00 0.00 0.00 25 1004.8
20260503223005 61 221 0.0 7.0 0.00 0.00 0.00 26 1004.9
20260503222504 61 265 0.0 7.0 0.00 0.00 0.00 25 1005.0
20260503222004 61 194 0.0 6.0 0.00 0.00 0.00 25 1005.0
20260503221504 61 211 0.0 15.0 0.00 0.00 0.00 26 1005.0
20260503221004 62 286 2.0 15.0 0.00 0.00 0.00 23 1004.8
20260503220503 62 204 0.0 1.0 0.00 0.00 0.00 26 1005.0
20260503220002 62 221 0.0 6.0 0.00 0.00 0.00 23 1005.1
20260503215502 63 217 0.0 12.0 0.00 0.00 0.00 23 1005.2
20260503215000 64 275 0.0 12.0 0.00 0.00 0.00 23 1005.4
20260503214609 65 268 2.0 14.0 0.00 0.00 0.00 24 1005.4
20260503214100 65 269 1.0 14.0 0.00 0.00 0.00 24 1005.5
20260503213559 65 205 0.0 14.0 0.00 0.00 0.00 25 1005.6
20260503213102 65 206 1.0 14.0 0.00 0.00 0.00 23 1005.5
20260503212559 66 207 1.0 7.0 0.00 0.00 0.00 23 1005.5
20260503212059 67 198 0.0 8.0 0.00 0.00 0.00 22 1005.7
20260503211604 67 231 0.0 9.0 0.00 0.00 0.00 24 1005.7
20260503211057 67 185 0.0 9.0 0.00 0.00 0.00 25 1005.8
20260503210557 66 192 1.0 14.0 0.00 0.00 0.00 24 1005.7
20260503210056 66 205 2.0 14.0 0.00 0.00 0.00 22 1005.9
20260503205555 66 337 0.0 10.0 0.00 0.00 0.00 22 1006.0
20260503205057 65 272 0.0 7.0 0.00 0.00 0.00 23 1006.3
20260503204555 65 248 0.0 7.0 0.00 0.00 0.00 25 1006.2
20260503204053 64 261 0.0 7.0 0.00 0.00 0.00 25 1006.4
20260503203553 64 205 0.0 5.0 0.00 0.00 0.00 25 1006.4
20260503203052 64 271 0.0 5.0 0.00 0.00 0.00 26 1006.5
20260503202552 64 177 0.0 8.0 0.00 0.00 0.00 22 1006.7
20260503202052 65 224 1.0 8.0 0.00 0.00 0.00 24 1006.8
20260503201552 67 266 0.0 5.0 0.00 0.00 0.00 21 1006.7
20260503201051 68 209 0.0 6.0 0.00 0.00 0.00 22 1006.7
20260503200550 67 209 0.0 10.0 0.00 0.00 0.00 25 1006.9
20260503200050 67 238 0.0 12.0 0.00 0.00 0.00 25 1007.0
20260503195550 66 250 3.0 12.0 0.00 0.00 0.00 24 1007.2
20260503195049 66 201 1.0 12.0 0.00 0.00 0.00 26 1007.1
20260503194550 67 232 2.0 12.0 0.00 0.00 0.00 23 1007.1
20260503194048 66 281 2.0 10.0 0.00 0.00 0.00 26 1007.0
20260503193548 65 201 0.0 10.0 0.00 0.00 0.00 26 1007.2
20260503193055 64 207 0.0 11.0 0.00 0.00 0.00 27 1007.2
20260503192547 65 209 0.0 11.0 0.00 0.00 0.00 25 1007.1
20260503192046 65 286 0.0 10.0 0.00 0.00 0.00 24 1007.3
20260503191546 65 238 1.0 10.0 0.00 0.00 0.00 25 1007.3
20260503191046 65 221 0.0 8.0 0.00 0.00 0.00 25 1007.4
20260503190546 66 209 0.0 5.0 0.00 0.00 0.00 23 1007.5
20260503190055 68 228 0.0 6.0 0.00 0.00 0.00 22 1007.5
20260503185543 68 275 0.0 8.0 0.00 0.00 0.00 27 1007.6
20260503185043 67 202 0.0 10.0 0.00 0.00 0.00 26 1007.8
20260503184555 67 265 2.0 10.0 0.00 0.00 0.00 24 1007.9
20260503184042 67 225 2.0 7.0 0.00 0.00 0.00 25 1007.9
20260503183540 67 186 1.0 6.0 0.00 0.00 0.00 24 1008.0
20260503183040 67 208 0.0 7.0 0.00 0.00 0.00 25 1008.2
20260503182545 66 198 1.0 19.0 0.00 0.00 0.00 27 1008.3
20260503182039 65 259 5.0 19.0 0.00 0.00 0.00 23 1008.4
20260503181538 65 280 1.0 21.0 0.00 0.00 0.00 24 1008.5
20260503181035 64 278 5.0 21.0 0.00 0.00 0.00 24 1008.6
20260503180534 65 290 4.0 12.0 0.00 0.00 0.00 22 1008.7
20260503180034 66 284 2.0 13.0 0.00 0.00 0.00 23 1008.9
20260503175533 66 279 4.0 13.0 0.00 0.00 0.00 25 1008.9
20260503175031 66 298 2.0 11.0 0.00 0.00 0.00 23 1009.0
20260503174537 65 213 1.0 16.0 0.00 0.00 0.00 26 1009.1
20260503174031 65 266 2.0 11.0 0.00 0.00 0.00 25 1009.3
20260503173527 64 178 1.0 16.0 0.00 0.00 0.00 27 1009.2